Battle Creek, MI

9:21 PM EDT on April 23, 2017 (GMT -0400)
Kellogg

Weather History for KBTL - January, 2014

Change the Weather History Date:

Saturday, January 18, 2014

  Actual Average Record
Temperature  
Mean Temperature 16 °F 23 °F  
Max Temperature 19 °F 31 °F 39 °F (2015)
Min Temperature 12 °F 15 °F -6 °F (2005)
Degree Days  
Heating Degree Days 49 42  
Month to date heating degree days 827 746  
Since 1 July heating degree days 3441 3346  
Cooling Degree Days 0 0  
Month to date cooling degree days 0 0  
Year to date cooling degree days 0 0  
Moisture  
Dew Point 10 °F    
Average Humidity 78    
Maximum Humidity 88    
Minimum Humidity 67    
Precipitation  
Precipitation T in 0.05 in 0.25 in (1999)
Month to date precipitation 0.75 1.09  
Year to date precipitation 0.75 1.09  
Sea Level Pressure  
Sea Level Pressure 29.89 in    
Wind  
Wind Speed 9 mph (South)    
Max Wind Speed 17 mph    
Max Gust Speed 21 mph    
Visibility 7 miles    
Events Snow    
T = Trace of Precipitation, MM = Missing Value Source: NWS Daily Summary

Daily Weather History Graph

Daily Weather History Graph

Search for Another Location

Airport or City:

Trip Planner

Search our weather history database for the weather conditions in past years. The results will help you decide how hot, cold, wet, or windy it might be!

Date:

Astronomy

Jan. 18, 2014 Rise Set
Actual Time 8:05 AM EST 5:37 PM EST
Civil Twilight 7:35 AM EST 6:08 PM EST
Nautical Twilight 7:00 AM EST 6:42 PM EST
Astronomical Twilight 6:27 AM EST 7:16 PM EST
Moon 8:22 PM EST (1/18) 9:01 AM EST (1/18)
Length of Visible Light 10h 33m
Length of Day
9h 31m
Waning Gibbous, 94% of the Moon is Illuminated
Jan 18
Waning Gibbous
Jan 24
Last Quarter
Jan 30
New
Feb 6
First Quarter
Feb 14
Full

Hourly Weather History & Observations

Time (EST) Temp. Windchill Dew Point Humidity Pressure Visibility Wind Dir Wind Speed Gust Speed Precip Events Conditions
12:53 AM 12.9 °F -0.9 °F 8.1 °F 81% 29.92 in 10.0 mi SSW 11.5 mph - N/A   Overcast
1:53 AM 14.0 °F -0.2 °F 9.0 °F 80% 29.92 in 10.0 mi SSW 12.7 mph - N/A   Overcast
2:53 AM 14.0 °F 0.5 °F 9.0 °F 80% 29.92 in 6.0 mi SSW 11.5 mph - 0.00 in Snow Light Snow
3:06 AM 15.1 °F 1.1 °F 10.0 °F 80% 29.87 in 6.0 mi SSW 12.7 mph - 0.00 in Snow Light Snow
3:53 AM 15.1 °F 0.5 °F 10.0 °F 80% 29.92 in 6.0 mi SW 13.8 mph - 0.00 in Snow Light Snow
4:53 AM 15.1 °F 0.5 °F 10.9 °F 84% 29.91 in 9.0 mi SSW 13.8 mph - 0.00 in   Overcast
5:53 AM 15.1 °F 1.1 °F 10.9 °F 84% 29.91 in 10.0 mi SW 12.7 mph - 0.00 in   Overcast
6:53 AM 15.1 °F 1.1 °F 10.0 °F 80% 29.92 in 8.0 mi SW 12.7 mph - N/A   Overcast
7:53 AM 15.1 °F 1.1 °F 10.0 °F 80% 29.91 in 10.0 mi SW 12.7 mph - 0.00 in   Overcast
8:53 AM 15.1 °F 0.5 °F 9.0 °F 77% 29.93 in 10.0 mi SW 13.8 mph - N/A   Overcast
9:53 AM 14.0 °F 0.5 °F 9.0 °F 80% 29.94 in 9.0 mi SSW 11.5 mph - N/A   Overcast
10:19 AM 15.1 °F 3.3 °F 9.0 °F 77% 29.89 in 6.0 mi SSW 9.2 mph - 0.00 in Snow Light Snow
10:53 AM 15.1 °F 2.5 °F 9.0 °F 77% 29.94 in 5.0 mi SSW 10.4 mph - 0.00 in Snow Light Snow
11:53 AM 16.0 °F 2.3 °F 9.0 °F 74% 29.93 in 10.0 mi SSW 12.7 mph - 0.00 in   Scattered Clouds
12:53 PM 17.1 °F 5.0 °F 9.0 °F 71% 29.90 in 10.0 mi South 10.4 mph - N/A   Clear
1:53 PM 18.0 °F 6.9 °F 10.0 °F 71% 29.88 in 10.0 mi SSW 9.2 mph - N/A   Partly Cloudy
2:53 PM 18.0 °F 7.7 °F 10.0 °F 71% 29.87 in 10.0 mi South 8.1 mph - N/A   Overcast
3:53 PM 18.0 °F 6.9 °F 9.0 °F 68% 29.87 in 10.0 mi South 9.2 mph - N/A   Scattered Clouds
4:53 PM 18.0 °F 8.7 °F 10.0 °F 71% 29.87 in 10.0 mi SSE 6.9 mph - N/A   Overcast
5:53 PM 19.0 °F 10.0 °F 10.0 °F 68% 29.89 in 9.0 mi SE 6.9 mph - 0.00 in Snow Light Snow
6:15 PM 18.0 °F 7.7 °F 10.9 °F 74% 29.84 in 2.5 mi SE 8.1 mph - 0.00 in Snow Light Snow
6:53 PM 17.1 °F 7.6 °F 12.0 °F 81% 29.90 in 2.5 mi SSE 6.9 mph - 0.00 in Snow Light Snow
7:10 PM 17.1 °F 8.7 °F 12.0 °F 81% 29.85 in 2.0 mi SSE 5.8 mph - 0.00 in Snow Light Snow
7:53 PM 17.1 °F 11.7 °F 12.9 °F 84% 29.90 in 2.0 mi SSE 3.5 mph - 0.00 in Snow Light Snow
8:36 PM 17.1 °F - 12.0 °F 81% 29.84 in 4.0 mi Calm Calm - 0.00 in Snow Light Snow
8:53 PM 17.1 °F 11.7 °F 12.0 °F 81% 29.89 in 4.0 mi ESE 3.5 mph - 0.00 in Snow Light Snow
9:53 PM 16.0 °F - 12.0 °F 84% 29.87 in 5.0 mi Calm Calm - 0.00 in Snow Light Snow
10:53 PM 15.1 °F - 12.0 °F 88% 29.85 in 6.0 mi Calm Calm - 0.00 in   Overcast
11:20 PM 14.0 °F - 10.9 °F 88% 29.79 in 5.0 mi Calm Calm - N/A   Overcast
11:53 PM 12.0 °F - 9.0 °F 88% 29.84 in 6.0 mi Calm Calm - N/A   Overcast